Flag for U.S.A. Weather past 2 weeks in West Covina, California, U.S.A.

52 °F

Mostly cloudy.

Feels Like: 51 °F
Forecast: 41 / 60 °F
Wind: 5 mph from East

Location: Fullerton Municipal Airport

Current Time: Nov 27, 2015 at 4:07:05 AM

Latest Report: Nov 27, 2015 at 2:53 AM

Visibility: 10 mi

Pressure: 29.97 "Hg

Humidity: 72%

Dew point: 43 °F

Location of West CovinaLocation

Historic Weather in West Covina — Graph


West Covina temperature yesterday

Maximum temperature yesterday: 63 °F (at 12:53 PM)
Minimum temperature yesterday: 50 °F (at 1:53 AM)
Average temperature yesterday: 56 °F

Past Weeks' High & Low Weather Summary

High89 °F (Nov 21, 2:53 PM)90% (Nov 25, 1:53 AM)30.17 "Hg (Nov 25, 1:53 AM)
Low41 °F (Nov 17, 5:53 AM)7% (Nov 12, 2:53 PM)29.84 "Hg (Nov 25, 2:53 AM)
Average62 °F44%29.95 "Hg
* Reported Nov 12 2:53 AM — Nov 27 2:53 AM, West Covina, Weather by CustomWeather, © 2015

Note: Actual official high and low records may vary slightly from our data, if they occured in-between our weather recording intervals... More about our weather records


West Covina weather history for previous 24 hours

Time TempWeatherWind HumidityBarometerVisibility
2:53 AM
Fri, Nov 27
52 °FMostly cloudy.5 mph72%29.97 "Hg10 mi
1:53 AM51 °FPassing clouds.6 mph71%29.98 "Hg10 mi
12:53 AM54 °FPassing clouds.5 mph64%29.97 "Hg10 mi
11:53 PM
Thu, Nov 26
54 °FOvercast.5 mph69%29.98 "Hg10 mi
10:53 PM54 °FPassing clouds.6 mph67%29.99 "Hg10 mi
9:53 PM51 °FClear.5 mph71%29.99 "Hg10 mi
8:53 PM56 °FPassing clouds.3 mph60%29.99 "Hg10 mi
7:53 PM57 °FMostly cloudy.No wind55%29.98 "Hg10 mi
6:53 PM57 °FPassing clouds.No wind55%29.97 "Hg10 mi
5:53 PM58 °FOvercast.3 mph51%29.96 "Hg10 mi
4:53 PM59 °FPassing clouds.6 mph49%29.96 "Hg10 mi
3:53 PM60 °FPassing clouds.7 mph46%29.94 "Hg10 mi
2:53 PM62 °FPassing clouds.10 mph41%29.94 "Hg10 mi
1:53 PM63 °FSunny.12 mph40%29.95 "Hg10 mi
12:53 PM63 °FSunny.7 mph43%29.95 "Hg10 mi
11:53 AM62 °FScattered clouds.9 mph41%29.98 "Hg10 mi
10:53 AM61 °FSunny.6 mph41%30.00 "Hg10 mi
9:53 AM58 °FSunny.3 mph58%30.01 "Hg10 mi
8:53 AM58 °FSunny.6 mph56%30.00 "Hg10 mi
7:53 AM54 °FSunny.6 mph64%29.99 "Hg10 mi
6:53 AM51 °FPartly sunny.No wind69%29.98 "Hg10 mi
5:53 AM50 °FPassing clouds.No wind71%29.97 "Hg10 mi
4:53 AM50 °FPassing clouds.No wind68%29.96 "Hg10 mi
Weather by CustomWeather, © 2015

See weather overviewHow to use our weather pages